| time (UTC) | temp C | wind direction | speed KPH | gust KPH | rain 1hr cm | rain 24hr cm | rain mn cm | humidity % | barometer mb |
| 20260906151846 | 23 | 119 | 3.2 | 11.3 | 0.00 | 0.00 | 0.00 | 72 | 1022.6 |
| 20260906150845 | 23 | 184 | 4.8 | 11.3 | 0.00 | 0.00 | 0.00 | 74 | 1022.7 |
| 20260906145846 | 23 | 177 | 3.2 | 14.5 | 0.00 | 0.00 | 0.00 | 73 | 1022.6 |
| 20260906144846 | 23 | 190 | 9.7 | 17.7 | 0.00 | 0.00 | 0.00 | 71 | 1022.6 |
| 20260906143846 | 23 | 151 | 8.0 | 12.9 | 0.00 | 0.00 | 0.00 | 73 | 1022.6 |
| 20260906142847 | 22 | 111 | 9.7 | 14.5 | 0.00 | 0.00 | 0.00 | 76 | 1022.9 |
| 20260906142329 | 22 | 134 | 8.0 | 11.3 | 0.00 | 0.00 | 0.00 | 75 | 1022.7 |
| 20260906140834 | 22 | 121 | 4.8 | 12.9 | 0.00 | 0.00 | 0.00 | 76 | 1023.0 |
| 20260906140749 | 22 | 180 | 4.8 | 17.7 | 0.00 | 0.00 | 0.00 | 76 | 1023.0 |
| 20260906134834 | 23 | 66 | 3.2 | 12.9 | 0.00 | 0.00 | 0.00 | 75 | 1023.2 |
| 20260906133834 | 22 | 131 | 9.7 | 12.9 | 0.00 | 0.00 | 0.00 | 75 | 1023.0 |
| 20260906132834 | 23 | 267 | 8.0 | 16.1 | 0.00 | 0.00 | 0.00 | 75 | 1023.2 |
| 20260906131834 | 22 | 210 | 6.4 | 12.9 | 0.00 | 0.00 | 0.00 | 75 | 1023.1 |
| 20260906130834 | 23 | 83 | 3.2 | 12.9 | 0.00 | 0.00 | 0.00 | 73 | 1023.1 |
| 20260906125845 | 23 | 111 | 1.6 | 12.9 | 0.00 | 0.00 | 0.00 | 74 | 1023.0 |
| 20260906125316 | 23 | 149 | 3.2 | 12.9 | 0.00 | 0.00 | 0.00 | 74 | 1023.1 |
| 20260906123834 | 23 | 96 | 3.2 | 14.5 | 0.00 | 0.00 | 0.00 | 74 | 1023.3 |
| 20260906122833 | 23 | 76 | 8.0 | 12.9 | 0.00 | 0.00 | 0.00 | 72 | 1023.1 |
| 20260906121834 | 23 | 177 | 4.8 | 12.9 | 0.00 | 0.00 | 0.00 | 73 | 1023.2 |
| 20260906121308 | 22 | 143 | 4.8 | 12.9 | 0.00 | 0.00 | 0.00 | 74 | 1023.4 |
| 20260906115822 | 23 | 166 | 4.8 | 14.5 | 0.00 | 0.00 | 0.00 | 72 | 1023.1 |
| 20260906114823 | 22 | 78 | 3.2 | 12.9 | 0.00 | 0.00 | 0.00 | 71 | 1023.1 |
| 20260906113822 | 23 | 181 | 4.8 | 16.1 | 0.00 | 0.00 | 0.00 | 69 | 1023.3 |
| 20260906112823 | 23 | 238 | 11.3 | 14.5 | 0.00 | 0.00 | 0.00 | 70 | 1023.3 |
| 20260906111823 | 22 | 83 | 3.2 | 12.9 | 0.00 | 0.00 | 0.00 | 72 | 1023.1 |
| 20260906105822 | 23 | 190 | 12.9 | 14.5 | 0.00 | 0.00 | 0.00 | 69 | 1023.3 |
| 20260906104823 | 22 | 211 | 6.4 | 12.9 | 0.00 | 0.00 | 0.00 | 72 | 1023.2 |
| 20260906103824 | 23 | 106 | 3.2 | 12.9 | 0.00 | 0.00 | 0.00 | 70 | 1023.3 |
| 20260906102821 | 22 | 136 | 6.4 | 11.3 | 0.00 | 0.00 | 0.00 | 72 | 1023.3 |
| 20260906101822 | 23 | 167 | 4.8 | 14.5 | 0.00 | 0.00 | 0.00 | 72 | 1023.2 |
| 20260906101305 | 22 | 165 | 4.8 | 9.7 | 0.00 | 0.00 | 0.00 | 73 | 1023.0 |
| 20260906095822 | 23 | 91 | 6.4 | 11.3 | 0.00 | 0.00 | 0.00 | 73 | 1023.0 |
| 20260906094822 | 22 | 157 | 4.8 | 11.3 | 0.00 | 0.00 | 0.00 | 73 | 1023.0 |
| 20260906093826 | 22 | 115 | 3.2 | 9.7 | 0.00 | 0.00 | 0.00 | 74 | 1022.9 |
| 20260906092822 | 22 | 176 | 8.0 | 11.3 | 0.00 | 0.00 | 0.00 | 75 | 1022.9 |
| 20260906091823 | 22 | 89 | 0.0 | 4.8 | 0.00 | 0.00 | 0.00 | 75 | 1022.7 |
| 20260906091300 | 21 | 33 | 1.6 | 3.2 | 0.00 | 0.00 | 0.00 | 77 | 1022.4 |
| 20260906085822 | 21 | 12 | 0.0 | 4.8 | 0.00 | 0.00 | 0.00 | 79 | 1022.5 |
| 20260906085259 | 20 | 3 | 3.2 | 4.8 | 0.00 | 0.00 | 0.00 | 81 | 1022.3 |
| 20260906083822 | 19 | 4 | 3.2 | 6.4 | 0.00 | 0.00 | 0.00 | 84 | 1022.3 |
| 20260906082822 | 18 | 354 | 4.8 | 9.7 | 0.00 | 0.00 | 0.00 | 83 | 1022.3 |
| 20260906081822 | 18 | 1 | 3.2 | 9.7 | 0.00 | 0.00 | 0.00 | 83 | 1022.3 |
| 20260906080822 | 18 | 350 | 3.2 | 6.4 | 0.00 | 0.00 | 0.00 | 84 | 1022.5 |
| 20260906080250 | 18 | 322 | 6.4 | 9.7 | 0.00 | 0.00 | 0.00 | 84 | 1022.4 |
| 20260906074810 | 17 | 344 | 6.4 | 9.7 | 0.00 | 0.00 | 0.00 | 85 | 1022.4 |
| 20260906073811 | 17 | 347 | 6.4 | 9.7 | 0.00 | 0.00 | 0.00 | 86 | 1022.1 |
| 20260906072811 | 17 | 339 | 4.8 | 9.7 | 0.00 | 0.00 | 0.00 | 86 | 1022.1 |
| 20260906072256 | 17 | 350 | 4.8 | 9.7 | 0.00 | 0.00 | 0.00 | 86 | 1022.2 |
| 20260906070810 | 17 | 349 | 4.8 | 9.7 | 0.00 | 0.00 | 0.00 | 87 | 1022.0 |
| 20260906065809 | 17 | 343 | 4.8 | 9.7 | 0.00 | 0.00 | 0.00 | 87 | 1022.0 |
| 20260906064810 | 17 | 1 | 3.2 | 6.4 | 0.00 | 0.00 | 0.00 | 87 | 1021.8 |
| 20260906063810 | 17 | 342 | 6.4 | 6.4 | 0.00 | 0.00 | 0.00 | 86 | 1021.8 |
| 20260906062810 | 17 | 332 | 4.8 | 11.3 | 0.00 | 0.00 | 0.00 | 86 | 1021.8 |
| 20260906061810 | 17 | 351 | 3.2 | 6.4 | 0.00 | 0.00 | 0.00 | 87 | 1021.9 |
| 20260906060810 | 17 | 347 | 4.8 | 11.3 | 0.00 | 0.00 | 0.00 | 88 | 1021.7 |
| 20260906055810 | 17 | 336 | 4.8 | 9.7 | 0.00 | 0.00 | 0.00 | 88 | 1021.6 |
| 20260906054810 | 17 | 339 | 4.8 | 6.4 | 0.00 | 0.00 | 0.00 | 87 | 1021.5 |
| 20260906053810 | 17 | 342 | 3.2 | 9.7 | 0.00 | 0.00 | 0.00 | 86 | 1021.5 |
| 20260906052810 | 17 | 12 | 4.8 | 9.7 | 0.00 | 0.00 | 0.00 | 86 | 1021.6 |
| 20260906051810 | 17 | 357 | 6.4 | 9.7 | 0.00 | 0.00 | 0.00 | 86 | 1021.3 |
| 20260906050810 | 17 | 345 | 6.4 | 9.7 | 0.00 | 0.00 | 0.00 | 86 | 1021.3 |
| 20260906050252 | 17 | 342 | 6.4 | 9.7 | 0.00 | 0.00 | 0.00 | 86 | 1021.2 |
| 20260906045248 | 17 | 340 | 6.4 | 9.7 | 0.00 | 0.00 | 0.00 | 85 | 1021.3 |
| 20260906044247 | 18 | 356 | 4.8 | 9.7 | 0.00 | 0.00 | 0.00 | 84 | 1021.2 |
| 20260906043208 | 18 | 347 | 6.4 | 11.3 | 0.00 | 0.00 | 0.00 | 84 | 1021.6 |
| 20260906042847 | 18 | 339 | 6.4 | 11.3 | 0.00 | 0.00 | 0.00 | 84 | 1021.3 |
| 20260906040810 | 18 | 341 | 8.0 | 11.3 | 0.00 | 0.00 | 0.00 | 85 | 1021.2 |
| 20260906035810 | 17 | 343 | 4.8 | 9.7 | 0.00 | 0.00 | 0.00 | 86 | 1021.6 |
| 20260906034810 | 17 | 340 | 3.2 | 6.4 | 0.00 | 0.00 | 0.00 | 87 | 1021.3 |
| 20260906033810 | 17 | 349 | 3.2 | 9.7 | 0.00 | 0.00 | 0.00 | 87 | 1021.2 |
| 20260906032811 | 17 | 344 | 6.4 | 9.7 | 0.00 | 0.00 | 0.00 | 87 | 1021.3 |
| 20260906031810 | 17 | 27 | 4.8 | 9.7 | 0.00 | 0.00 | 0.00 | 87 | 1021.5 |
| 20260906030811 | 17 | 354 | 8.0 | 11.3 | 0.00 | 0.00 | 0.00 | 86 | 1021.2 |
| 20260906025809 | 17 | 13 | 8.0 | 11.3 | 0.00 | 0.00 | 0.00 | 86 | 1021.3 |
| 20260906024810 | 17 | 344 | 4.8 | 9.7 | 0.00 | 0.00 | 0.00 | 87 | 1021.5 |
| 20260906023811 | 17 | 7 | 4.8 | 9.7 | 0.00 | 0.00 | 0.00 | 86 | 1021.6 |
| 20260906023248 | 17 | 335 | 4.8 | 9.7 | 0.00 | 0.00 | 0.00 | 86 | 1021.7 |
| 20260906021810 | 18 | 348 | 6.4 | 9.7 | 0.00 | 0.00 | 0.00 | 85 | 1021.5 |
| 20260906020811 | 18 | 344 | 6.4 | 9.7 | 0.00 | 0.00 | 0.00 | 84 | 1022.0 |
| 20260906020250 | 18 | 346 | 3.2 | 6.4 | 0.00 | 0.00 | 0.00 | 84 | 1021.9 |
| 20260906014810 | 18 | 343 | 3.2 | 6.4 | 0.00 | 0.00 | 0.00 | 85 | 1022.0 |
| 20260906013809 | 18 | 343 | 4.8 | 6.4 | 0.00 | 0.00 | 0.00 | 85 | 1022.0 |
| 20260906012810 | 18 | 349 | 3.2 | 6.4 | 0.00 | 0.00 | 0.00 | 85 | 1022.1 |
| 20260906011810 | 18 | 345 | 4.8 | 4.8 | 0.00 | 0.00 | 0.00 | 85 | 1022.1 |
| 20260906010810 | 18 | 348 | 4.8 | 6.4 | 0.00 | 0.00 | 0.00 | 84 | 1022.2 |
| 20260906005810 | 18 | 344 | 4.8 | 6.4 | 0.00 | 0.00 | 0.00 | 85 | 1022.3 |
| 20260906005255 | 18 | 345 | 3.2 | 6.4 | 0.00 | 0.00 | 0.00 | 86 | 1022.2 |
| 20260906003810 | 18 | 339 | 3.2 | 4.8 | 0.00 | 0.00 | 0.00 | 85 | 1022.4 |
| 20260906002810 | 18 | 341 | 3.2 | 6.4 | 0.00 | 0.00 | 0.00 | 85 | 1022.3 |
| 20260906001810 | 18 | 332 | 4.8 | 9.7 | 0.00 | 0.00 | 0.00 | 85 | 1022.3 |
| 20260906000810 | 18 | 323 | 4.8 | 9.7 | 0.00 | 0.00 | 0.00 | 84 | 1022.4 |
| 20260905235810 | 18 | 340 | 6.4 | 9.7 | 0.00 | 0.00 | 0.00 | 85 | 1022.5 |
| 20260905234810 | 18 | 346 | 4.8 | 6.4 | 0.00 | 0.00 | 0.00 | 86 | 1022.5 |
| 20260905234252 | 18 | 28 | 3.2 | 6.4 | 0.00 | 0.00 | 0.00 | 86 | 1022.4 |
| 20260905232810 | 18 | 335 | 4.8 | 6.4 | 0.00 | 0.00 | 0.00 | 85 | 1022.5 |
| 20260905232253 | 18 | 355 | 4.8 | 9.7 | 0.00 | 0.00 | 0.00 | 84 | 1022.5 |
| 20260905230810 | 18 | 336 | 6.4 | 9.7 | 0.00 | 0.00 | 0.00 | 84 | 1022.6 |
| 20260905230243 | 18 | 342 | 3.2 | 9.7 | 0.00 | 0.00 | 0.00 | 85 | 1022.5 |
| 20260905224810 | 18 | 335 | 3.2 | 6.4 | 0.00 | 0.00 | 0.00 | 84 | 1022.5 |
| 20260905223810 | 19 | 342 | 3.2 | 6.4 | 0.00 | 0.00 | 0.00 | 84 | 1022.6 |
| 20260905222810 | 18 | 349 | 3.2 | 6.4 | 0.00 | 0.00 | 0.00 | 83 | 1022.6 |
| 20260905222732 | 19 | 347 | 4.8 | 6.4 | 0.00 | 0.00 | 0.00 | 84 | 1022.3 |
| 20260905220810 | 19 | 359 | 4.8 | 9.7 | 0.00 | 0.00 | 0.00 | 84 | 1022.2 |
| 20260905215811 | 19 | 340 | 3.2 | 4.8 | 0.00 | 0.00 | 0.00 | 85 | 1022.5 |
| 20260905214810 | 19 | 351 | 3.2 | 3.2 | 0.00 | 0.00 | 0.00 | 83 | 1022.3 |
| 20260905213810 | 19 | 347 | 1.6 | 4.8 | 0.00 | 0.00 | 0.00 | 82 | 1022.3 |
| 20260905212810 | 19 | 346 | 3.2 | 4.8 | 0.00 | 0.00 | 0.00 | 81 | 1022.3 |
| 20260905211810 | 19 | 335 | 1.6 | 4.8 | 0.00 | 0.00 | 0.00 | 82 | 1022.2 |
| 20260905210810 | 19 | 349 | 3.2 | 4.8 | 0.00 | 0.00 | 0.00 | 81 | 1021.9 |
| 20260905210252 | 19 | 344 | 3.2 | 4.8 | 0.00 | 0.00 | 0.00 | 83 | 1021.5 |
| 20260905204810 | 20 | 0 | 0.0 | 3.2 | 0.00 | 0.00 | 0.00 | 86 | 1021.5 |
| 20260905204248 | 20 | 93 | 1.6 | 1.6 | 0.00 | 0.00 | 0.00 | 88 | 1021.3 |
| 20260905202810 | 20 | 99 | 0.0 | 3.2 | 0.00 | 0.00 | 0.00 | 88 | 1021.3 |
| 20260905202249 | 20 | 115 | 0.0 | 1.6 | 0.00 | 0.00 | 0.00 | 88 | 1021.2 |
| 20260905200810 | 20 | 111 | 0.0 | 3.2 | 0.00 | 0.00 | 0.00 | 88 | 1020.8 |
| 20260905195811 | 20 | 133 | 3.2 | 4.8 | 0.00 | 0.00 | 0.00 | 89 | 1020.8 |
| 20260905194811 | 20 | 154 | 1.6 | 4.8 | 0.00 | 0.00 | 0.00 | 89 | 1020.8 |
| 20260905193810 | 20 | 155 | 3.2 | 4.8 | 0.00 | 0.00 | 0.00 | 88 | 1020.6 |
| 20260905192810 | 20 | 149 | 1.6 | 6.4 | 0.00 | 0.00 | 0.00 | 88 | 1020.4 |
| 20260905192246 | 20 | 134 | 1.6 | 4.8 | 0.00 | 0.00 | 0.00 | 88 | 1020.6 |
| 20260905190810 | 20 | 160 | 3.2 | 6.4 | 0.00 | 0.00 | 0.00 | 88 | 1020.6 |
| 20260905185811 | 20 | 128 | 1.6 | 6.4 | 0.00 | 0.00 | 0.00 | 88 | 1020.5 |
| 20260905184810 | 20 | 111 | 3.2 | 6.4 | 0.00 | 0.00 | 0.00 | 88 | 1020.4 |
| 20260905183810 | 20 | 160 | 4.8 | 6.4 | 0.00 | 0.00 | 0.00 | 88 | 1020.4 |
| 20260905182811 | 20 | 135 | 3.2 | 4.8 | 0.00 | 0.00 | 0.00 | 88 | 1020.7 |
| 20260905181810 | 20 | 160 | 3.2 | 6.4 | 0.00 | 0.00 | 0.00 | 87 | 1020.7 |
| 20260905180810 | 20 | 147 | 1.6 | 4.8 | 0.00 | 0.00 | 0.00 | 87 | 1020.8 |
| 20260905175810 | 20 | 198 | 3.2 | 6.4 | 0.00 | 0.00 | 0.00 | 87 | 1020.7 |
| 20260905175720 | 20 | 99 | 1.6 | 6.4 | 0.00 | 0.00 | 0.00 | 87 | 1020.7 |
| 20260905173810 | 20 | 102 | 3.2 | 6.4 | 0.00 | 0.00 | 0.00 | 87 | 1020.7 |
| 20260905172811 | 21 | 121 | 3.2 | 9.7 | 0.00 | 0.00 | 0.00 | 87 | 1020.7 |
| 20260905171810 | 21 | 43 | 0.0 | 9.7 | 0.00 | 0.00 | 0.00 | 87 | 1020.7 |
| 20260905170810 | 21 | 140 | 4.8 | 9.7 | 0.00 | 0.00 | 0.00 | 85 | 1020.6 |
| 20260905170247 | 21 | 112 | 6.4 | 9.7 | 0.00 | 0.00 | 0.00 | 85 | 1020.5 |
| 20260905165244 | 21 | 82 | 0.0 | 6.4 | 0.00 | 0.00 | 0.00 | 84 | 1020.5 |
| 20260905163810 | 21 | 326 | 1.6 | 6.4 | 0.00 | 0.00 | 0.00 | 84 | 1020.5 |
| 20260905162810 | 21 | 153 | 1.6 | 11.3 | 0.00 | 0.00 | 0.00 | 85 | 1020.6 |
| 20260905161810 | 21 | 107 | 8.0 | 9.7 | 0.00 | 0.00 | 0.00 | 84 | 1020.3 |
| 20260905160810 | 21 | 101 | 4.8 | 11.3 | 0.00 | 0.00 | 0.00 | 83 | 1020.3 |
| 20260905160300 | 21 | 112 | 3.2 | 11.3 | 0.00 | 0.00 | 0.00 | 83 | 1020.5 |
| 20260905154810 | 21 | 82 | 3.2 | 9.7 | 0.00 | 0.00 | 0.00 | 83 | 1020.5 |
| 20260905153810 | 21 | 167 | 6.4 | 11.3 | 0.00 | 0.00 | 0.00 | 82 | 1020.6 |